Regional Weather Roundup
Issued by NWS

Home | Current Version | Previous Version | Graphics & Text | Print | Product List | Glossary On
Versions: 1 2 3 4 5 6 7 8 9 10 11 12 13 14 15 16 17 18 19 20 21 22 23 24 25 26 27
000
ASUS45 KBOU 181207
RWRCO

WEATHER ROUNDUP FOR COLORADO
NATIONAL WEATHER SERVICE DENVER/BOULDER CO
500 AM MST WED JAN 18 2017

NOTE: "FAIR" INDICATES FEW OR NO CLOUDS BELOW 12000 FEET WITH NO
SIGNIFICANT WEATHER AND/OR OBSTRUCTIONS TO VISIBILITY.

COZ001>005-013-030-031-181300-
...NORTHWEST COLORADO...

CITY           SKY/WX    TMP DP  RH WIND       PRES   REMARKS
CRAIG          CLOUDY     4  -1  80 CALM      30.17F
HAYDEN         FAIR      10   7  85 SE15      30.14S WCI  -6
MEEKER         FAIR       9   4  80 CALM      30.15F
MOUNT WERNER   NOT AVBL
STEAMBOAT SPGS FAIR       1  -2  85 CALM      30.16S
WALDEN           N/A    N/A N/A N/A CALM      30.13S VSB 1/2
$$

COZ006>008-011-181300-
...WEST CENTRAL VALLEYS...

CITY           SKY/WX    TMP DP  RH WIND       PRES   REMARKS
GRAND JUNCTION CLOUDY    29  29 100 E3        30.14F
MONTROSE       CLOUDY    32  30  92 S3        30.16F
EAGLE          CLOUDY    20  17  88 SE3       30.20F
RIFLE          CLOUDY    27  24  89 W3        30.16F
DELTA          FAIR      34  31  88 CALM      30.16F
NUCLA          MOCLDY    27  23  86 SE5       30.18F WCI  21
$$

COZ017>023-064>068-181300-
...SOUTHWEST COLORADO...

CITY           SKY/WX    TMP DP  RH WIND       PRES   REMARKS
DURANGO        CLOUDY    30  28  92 SW3       30.11F
CORTEZ         FAIR      25  23  92 E5        30.13F WCI  19
PAGOSA SPRINGS CLOUDY    31  28  90 CALM      30.11S
TELLURIDE      FAIR      17  11  78 SE6       30.15F WCI   9
WOLF CREEK PAS CLOUDY    16  16 100 SW13G22   30.13F WCI   2
$$

COZ009-010-012-014-032>034-037-058>063-181300-
...CENTRAL COLORADO...

CITY           SKY/WX    TMP DP  RH WIND       PRES   REMARKS
ASPEN          CLOUDY    19  11  70 S7        30.14F WCI  10
BUENA VISTA    FAIR       9   3  76 CALM      30.07S
COPPER MTN     FAIR      21  -9  25 MISG      30.09F
BERTHOUD PASS  NOT AVBL
COTTONWOOD PAS FAIR      27   3  36 SW6       30.04S WCI  20
GUNNISON       CLOUDY    20  17  88 CALM      30.15S
KREMMLING      LGT SNOW  16  10  79 CALM      30.21S
LEADVILLE      FAIR       8   5  87 NE13      30.05F WCI  -8
MONARCH PASS     N/A     10   7  85 MISG      30.17S
SALIDA         FAIR      19  10  70 N14       30.14R WCI   5
SUNLIGHT       FOG      N/A N/A N/A CALM      30.14F VSB 3/4
WILKERSON PASS FAIR      27 -24  10 N7        30.06F WCI  19
$$

COZ069>075-181300-
...SAN LUIS VALLEY/SANGRE DE CRISTO MOUNTAINS...

CITY           SKY/WX    TMP DP  RH WIND       PRES   REMARKS
ALAMOSA        CLOUDY    25  24  96 CALM      30.10S
LA VETA PASS   CLOUDY    19  18  93 NE29      30.01F FOG     WCI   1
SAGUACHE       FAIR      14  10  85 N5        30.11S WCI   6
$$

COZ035-036-038>040-181300-
...NORTHERN COLORADO FRONT RANGE...

CITY           SKY/WX    TMP DP  RH WIND       PRES   REMARKS
DENVER INTL AP FAIR      26  14  60 SW12      29.93F WCI  16
DMNS CITY PARK   N/A     24  15  67 E9        29.94S WCI  14
AURORA         CLEAR     25  14  63 S12       29.94S WCI  15
FRONT RANGE AP FAIR      27  18  69 SW8       29.94S WCI  18
ERIE MUNI ARPT FAIR      16  12  86 CALM      29.95R
BOULDER MUN AP FAIR      30  14  51 S3        29.94R
CENTENNIAL     FAIR      19  10  68 S6        29.94S WCI  11
BROOMFIELD     FAIR      32  10  40 CALM      29.94F
FORT COLLINS   FAIR      23  16  74 CALM      29.94S
LONGMONT       FAIR      17  12  81 CALM      29.96S
$$

COZ041-046-047-076>085-087-088-181300-
...PIKES PEAK/PALMER DIVIDE AND SOUTHERN FOOTHILLS...

CITY           SKY/WX    TMP DP  RH WIND       PRES   REMARKS
COLO. SPRINGS  FAIR      24  14  65 N8        29.95F WCI  15
A. F. ACADEMY  FAIR      19  12  75 N10       29.94F WCI   7
SCHRIEVER AFB  NOT AVBL
ELLICOTT       FAIR     N/A N/A N/A NE6       29.93F
FALCON         FAIR      23  14  68 NW7       29.96F WCI  15
FORT CARSON    CLEAR     25  16  68 NE3       29.95F
LIMON          FAIR       9   6  88 N5        29.95S WCI   1
MONUMENT HILL  FAIR      21   9  58 SW7       29.96F WCI  13
TRINIDAD       FAIR      28  21  75 W8        29.97F WCI  20
$$

COZ042>045-048>051-090-091-181300-
...NORTHEAST COLORADO...

CITY           SKY/WX    TMP DP  RH WIND       PRES   REMARKS
GREELEY ARPT   FAIR      17  15  92 SW6       29.95F WCI   9
AKRON          FAIR      23  15  71 W14       29.92F WCI  11
BURLINGTON     FAIR      26  22  84 W10       29.93F WCI  16
WRAY           NOT AVBL
STERLING       FAIR      16  14  93 SW5       29.94F WCI   9
HOLYOKE        FAIR      16  12  86 W9        29.93F WCI   4
FORT MORGAN    FAIR      17  15  90 W10       29.94F WCI   5
$$

COZ086-089-092>099-181300-
...SOUTHEAST COLORADO...

CITY           SKY/WX    TMP DP  RH WIND       PRES   REMARKS
PUEBLO         FOG       27  24  89 CALM      29.97S VSB 1/4
LA JUNTA       FAIR      18  14  84 W13       29.97F WCI   5
LAMAR          FOG       19  17  92 W10       29.97F VSB 1   WCI   7
SPRINGFIELD      N/A     32  31  96 W9        29.96F WCI  24
$$




USA.gov is the U.S. government's official web portal to all federal, state and local government web resources and services.